Hannover, Germany

5:57 AM CEST on June 29, 2017 (GMT +0200)
Hannover

Weather History for EDDV - June, 2017

Change the Weather History Date:

Monday, June 19, 2017

  Actual Average Record
Temperature  
Mean Temperature 73 °F -  
Max Temperature 86 °F 71 °F 91 °F (2000)
Min Temperature 60 °F 53 °F 44 °F (1997)
Cooling Degree Days 8    
Growing Degree Days 23 (Base 50)    
Moisture  
Dew Point 58 °F    
Average Humidity 61    
Maximum Humidity 94    
Minimum Humidity 30    
Precipitation  
Precipitation 0.00 in 0.09 in - ()
Sea Level Pressure  
Sea Level Pressure 30.14 in    
Wind  
Wind Speed 4 mph ()    
Max Wind Speed 8 mph    
Max Gust Speed 17 mph    
Visibility 6.2 miles    
Events Fog    
Averages and records for this station are not official NWS values.
T = Trace of Precipitation, MM = Missing Value Source: Averaged Metar Reports

Daily Weather History Graph

Daily Weather History Graph

Search for Another Location

Airport or City:

Trip Planner

Search our weather history database for the weather conditions in past years. The results will help you decide how hot, cold, wet, or windy it might be!

Date:

Astronomy

Jun. 19, 2017 Rise Set
Actual Time 4:57 AM CEST 9:47 PM CEST
Civil Twilight 4:07 AM CEST 10:37 PM CEST
Nautical Twilight 2:45 AM CEST 12:00 AM CEST
Astronomical Twilight Sun does not set Sun does not set
Moon 2:25 AM CEST (6/19) 3:36 PM CEST (6/19)
Length of Visible Light 18h 29m
Length of Day
16h 49m
Waning Crescent, 29% of the Moon is Illuminated
Jun 19
Waning Crescent
Jun 24
New
Jul 1
First Quarter
Jul 9
Full
Jul 16
Last Quarter

Hourly Weather History & Observations

Time (CEST) Temp. Heat Index Dew Point Humidity Pressure Visibility Wind Dir Wind Speed Gust Speed Precip Events Conditions
12:20 AM 66.2 °F - 60.8 °F 83% 30.21 in - ENE 1.2 mph - N/A   Clear
12:50 AM 64.4 °F - 59.0 °F 83% 30.21 in - ENE 4.6 mph - N/A   Clear
1:20 AM 62.6 °F - 59.0 °F 88% 30.21 in - ENE 4.6 mph - N/A   Clear
1:50 AM 62.6 °F - 60.8 °F 94% 30.21 in - ENE 3.5 mph - N/A   Clear
2:20 AM 62.6 °F - 59.0 °F 88% 30.21 in - East 2.3 mph - N/A   Clear
2:50 AM 62.6 °F - 59.0 °F 88% 30.21 in - ENE 4.6 mph - N/A   Clear
3:20 AM 60.8 °F - 59.0 °F 94% 30.21 in - ENE 3.5 mph - N/A   Clear
3:50 AM 60.8 °F - 59.0 °F 94% 30.21 in 6.2 mi East 3.5 mph - N/A Fog Shallow Fog
4:20 AM 60.8 °F - 59.0 °F 94% 30.21 in 6.2 mi East 4.6 mph - N/A Fog Shallow Fog
4:50 AM 60.8 °F - 59.0 °F 94% 30.21 in 6.2 mi ENE 4.6 mph - N/A Fog Shallow Fog
5:20 AM 60.8 °F - 59.0 °F 94% 30.21 in 6.2 mi East 2.3 mph - N/A Fog Shallow Fog
5:50 AM 60.8 °F - 59.0 °F 94% 30.21 in 6.2 mi East 3.5 mph - N/A Fog Shallow Fog
6:20 AM 62.6 °F - 59.0 °F 88% 30.21 in 6.2 mi Variable 2.3 mph - N/A Fog Shallow Fog
6:50 AM 64.4 °F - 60.8 °F 88% 30.21 in - Variable 2.3 mph - N/A   Clear
7:20 AM 68.0 °F - 60.8 °F 78% 30.21 in - Variable 2.3 mph - N/A   Clear
7:50 AM 71.6 °F - 60.8 °F 69% 30.21 in - SSE 5.8 mph - N/A   Clear
8:20 AM 71.6 °F - 60.8 °F 69% 30.21 in - SSE 4.6 mph - N/A   Clear
8:50 AM 75.2 °F - 59.0 °F 57% 30.21 in - SE 3.5 mph - N/A   Clear
9:20 AM 77.0 °F - 59.0 °F 54% 30.18 in - SSE 4.6 mph - N/A   Clear
9:50 AM 77.0 °F - 59.0 °F 54% 30.18 in - South 5.8 mph - N/A   Clear
10:20 AM 77.0 °F - 59.0 °F 54% 30.18 in 6.2 mi South 4.6 mph 17.3 mph N/A   Partly Cloudy
10:50 AM 78.8 °F - 59.0 °F 51% 30.18 in 6.2 mi SE 4.6 mph - N/A   Partly Cloudy
11:20 AM 78.8 °F - 59.0 °F 51% 30.18 in 6.2 mi ESE 6.9 mph - N/A   Partly Cloudy
11:50 AM 78.8 °F - 59.0 °F 51% 30.18 in 6.2 mi SE 5.8 mph - N/A   Partly Cloudy
12:20 PM 80.6 °F 81.1 °F 59.0 °F 48% 30.15 in 6.2 mi South 5.8 mph - N/A   Partly Cloudy
12:50 PM 80.6 °F 80.8 °F 57.2 °F 45% 30.15 in - SSE 6.9 mph - N/A   Clear
1:20 PM 82.4 °F 82.0 °F 57.2 °F 42% 30.15 in - South 8.1 mph - N/A   Clear
1:50 PM 82.4 °F 82.0 °F 57.2 °F 42% 30.12 in - SSE 5.8 mph - N/A   Clear
2:20 PM 82.4 °F 81.4 °F 53.6 °F 37% 30.12 in - SSW 4.6 mph - N/A   Clear
2:50 PM 84.2 °F 82.8 °F 53.6 °F 35% 30.12 in - Variable 5.8 mph - N/A   Clear
3:20 PM 84.2 °F - 50.0 °F 30% 30.09 in - Variable 5.8 mph - N/A   Clear
3:50 PM 86.0 °F 84.2 °F 53.6 °F 33% 30.09 in - Variable 5.8 mph - N/A   Clear
4:20 PM 84.2 °F - 51.8 °F 33% 30.09 in - South 8.1 mph - N/A   Clear
4:50 PM 86.0 °F 84.2 °F 53.6 °F 33% 30.06 in - Variable 5.8 mph - N/A   Clear
5:20 PM 84.2 °F 82.8 °F 53.6 °F 35% 30.06 in - WSW 6.9 mph - N/A   Clear
5:50 PM 84.2 °F 83.0 °F 55.4 °F 37% 30.06 in - SW 5.8 mph - N/A   Clear
6:20 PM 84.2 °F 83.0 °F 55.4 °F 37% 30.04 in - WSW 6.9 mph - N/A   Clear
6:50 PM 84.2 °F 83.0 °F 55.4 °F 37% 30.04 in - West 5.8 mph - N/A   Clear
7:20 PM 84.2 °F 83.0 °F 55.4 °F 37% 30.04 in - SW 4.6 mph - N/A   Clear
7:50 PM 84.2 °F 83.5 °F 57.2 °F 40% 30.04 in - Variable 2.3 mph - N/A   Clear
8:20 PM 82.4 °F 82.0 °F 57.2 °F 42% 30.04 in - Variable 2.3 mph - N/A   Clear
8:50 PM 78.8 °F - 60.8 °F 54% 30.04 in - NW 3.5 mph - N/A   Clear
9:20 PM 77.0 °F - 60.8 °F 57% 30.04 in - NW 2.3 mph - N/A   Clear
9:50 PM 73.4 °F - 60.8 °F 65% 30.04 in - North 2.3 mph - N/A   Clear
10:20 PM 71.6 °F - 59.0 °F 64% 30.04 in - Variable 1.2 mph - N/A   Clear
10:50 PM 71.6 °F - 60.8 °F 69% 30.04 in - Calm Calm - N/A   Clear
11:20 PM 69.8 °F - 59.0 °F 68% 30.04 in - Variable 1.2 mph - N/A   Clear
11:50 PM 68.0 °F - 59.0 °F 73% 30.04 in - Variable 1.2 mph - N/A   Clear